Regional Weather Roundup
Issued by NWS

Home | Current Version | Previous Version | Graphics & Text | Print | Product List | Glossary On
Versions: 1 2 3 4 5 6 7 8 9 10 11 12 13 14 15 16 17 18 19 20 21 22 23 24 25 26 27 28 29 30 31 32 33 34 35 36 37 38 39 40 41 42 43 44 45 46 47 48 49 50
000
ASUS43 KDTX 301801
RWRMI
MICHIGAN HOURLY REGIONAL WEATHER ROUNDUP
NATIONAL WEATHER SERVICE DETROIT/PONTIAC MI
200 PM EDT TUE AUG 30 2016

NOTE: "FAIR" INDICATES FEW OR NO CLOUDS BELOW 12,000 FEET WITH NO
SIGNIFICANT WEATHER AND/OR OBSTRUCTION TO VISIBILITY.

MIZ047>049-052>055-059>063-066>070-074>076-081>083-301900-
SOUTHEAST LOWER MICHIGAN

CITY           SKY/WX    TMP DP  RH WIND       PRES   REMARKS
ADRIAN         CLOUDY    79  61  53 SW5       30.15F
6HR MIN TEMP:  64; 6HR MAX TEMP:  81;

ALMA           MOSUNNY   82  73  75 SW5G16    30.11F
ANN ARBOR      PTSUNNY   79  61  53 SW6       30.14F
BAD AXE        MOSUNNY   81  69  68 SW8       30.10S
CARO           MOSUNNY   81  71  71 SW10      30.10F
DETROIT CITY   CLOUDY    79  60  52 SW9       30.13F
6HR MIN TEMP:  71; 6HR MAX TEMP:  81;

DETROIT        CLOUDY    79  60  52 S7        30.14F
6HR MIN TEMP:  69; 6HR MAX TEMP:  80;

FLINT          LGT RAIN  73  69  87 S7        30.13F
6HR MIN TEMP:  68; 6HR MAX TEMP:  77; 6HR PCP: TRACE;

GROSSE ILE     PTSUNNY   79  64  60 S5        30.13F
6HR MIN TEMP:  68; 6HR MAX TEMP:  79;

HILLSDALE      PTSUNNY   73  68  82 CALM      30.16F
6HR MIN TEMP:  51; 6HR MAX TEMP:  84; 6HR PCP:  0.03;

HOWELL         CLOUDY    79  69  70 SW7       30.14F
6HR MIN TEMP:  68; 6HR MAX TEMP:  80;


CITY           SKY/WX    TMP DP  RH WIND       PRES   REMARKS
JACKSON        CLOUDY    78  66  66 SW9       30.15F
6HR MIN TEMP:  68; 6HR MAX TEMP:  79;

LAMBERTVILLE   MOSUNNY   83  56  39 CALM      30.14F
6HR MIN TEMP:  63; 6HR MAX TEMP:  84;

LANSING        CLOUDY    78  67  68 W8        30.13F
6HR MIN TEMP:  70; 6HR MAX TEMP:  80; 6HR PCP: TRACE;

LAPEER         CLOUDY    80  67  63 W8        30.13F
6HR MIN TEMP:  64; 6HR MAX TEMP:  82;

MASON          CLOUDY    78  67  69 SW6       30.14F
MONROE         MOSUNNY   85  61  44 W3        30.12F
6HR MIN TEMP:  62; 6HR MAX TEMP:  85;

MT. CLEMENS    PTSUNNY   82  67  61 S13       30.11F
6HR MIN TEMP:  68; 6HR MAX TEMP:  83;

PONTIAC        CLOUDY    79  64  60 SW8       30.13F
6HR MIN TEMP:  69; 6HR MAX TEMP:  79;

PORT HOPE        N/A     83  69  62 W8G16     30.07F
6HR MIN TEMP:  67; 6HR MAX TEMP:  84;

PORT HURON     PTSUNNY   81  68  65 S7        30.12F
TRI CITIES     MOSUNNY   82  71  69 SW9       30.10F
6HR MIN TEMP:  68; 6HR MAX TEMP:  82;

MIDLAND        FAIR      83  68  60 SW9       30.09F
6HR MIN TEMP:  68; 6HR MAX TEMP:  84;

TROY           CLOUDY    82  54  37 SW7       30.15S
SAGINAW HB     MOSUNNY   81  70  69 SW7       30.09F
$$
MIZ043>046-050>051-056>058-064>065-071>073-077>080-301900-
SOUTHWEST LOWER MICHIGAN

CITY           SKY/WX    TMP DP  RH WIND       PRES   REMARKS
BATTLE CREEK   CLOUDY    75  70  84 CALM      30.14F
6HR MIN TEMP:  66; 6HR MAX TEMP:  76; 6HR PCP: TRACE;

BENTON HARBOR  CLOUDY    79  70  74 S6        30.11F
6HR MIN TEMP:  67; 6HR MAX TEMP:  79; 6HR PCP:  1.66;

BIG RAPIDS     CLOUDY    82  70  65 SW6       30.10F
6HR MIN TEMP:  65; 6HR MAX TEMP:  83;

COLDWATER      CLOUDY    74  70  88 CALM      30.15F
6HR MIN TEMP:  68; 6HR MAX TEMP:  74;

FREMONT        CLOUDY    80  71  73 W8        30.10F
HOLLAND        CLOUDY    80  69  69 SW6       30.12F
6HR MIN TEMP:  72; 6HR MAX TEMP:  80;

GRAND RAPIDS   CLOUDY    81  70  69 S12       30.12F
6HR MIN TEMP:  72; 6HR MAX TEMP:  82; 6HR PCP: TRACE;

IONIA          FAIR      81  67  63 SW8       30.11F
6HR MIN TEMP:  69; 6HR MAX TEMP:  82;

KALAMAZOO      CLOUDY    76  68  76 SW3       30.13F
6HR MIN TEMP:  70; 6HR MAX TEMP:  77; 6HR PCP:  0.07;

LUDINGTON      PTSUNNY   76  70  83 SW7       30.10F
6HR MIN TEMP:  65; 6HR MAX TEMP:  77;

MARSHALL       CLOUDY    78  70  75 CALM      30.14F
6HR MIN TEMP:  69; 6HR MAX TEMP:  78;

MOUNT PLEASANT PTSUNNY   84  69  58 SW7       30.09F
6HR MIN TEMP:  67; 6HR MAX TEMP:  84;

MUSKEGON       PTSUNNY   78  70  76 SW13      30.12F
6HR MIN TEMP:  72; 6HR MAX TEMP:  82;

SOUTH HAVEN    MOSUNNY   79  71  78 CALM      30.11F
$$
MIZ016>042-301900-
NORTHERN LOWER MICHIGAN

CITY           SKY/WX    TMP DP  RH WIND       PRES   REMARKS
ALPENA         PTSUNNY   83  67  58 VRB7      30.04F THUNDER
6HR MIN TEMP:  68; 6HR MAX TEMP:  87; 6HR PCP: TRACE;

BEAVER ISLAND  MOSUNNY   79  68  68 W9        30.06F
6HR MIN TEMP:  71; 6HR MAX TEMP:  80;

BELLAIRE       MOSUNNY   82  70  65 W5        30.06F
6HR MIN TEMP:  65; 6HR MAX TEMP:  83;

CADILLAC       PTSUNNY   82  69  65 SW8       30.10F
CHARLEVOIX     CLOUDY    76  71  87 W13       30.10S
6HR MIN TEMP:  71; 6HR MAX TEMP:  78;

FRANKFORT      CLOUDY    76  70  83 SW5       30.08F
GAYLORD        CLOUDY    83  67  58 W14       30.08F
6HR MIN TEMP:  68; 6HR MAX TEMP:  83; 6HR PCP: TRACE;

GRAYLING       PTSUNNY   82  68  63 W6        30.10F
6HR MIN TEMP:  62; 6HR MAX TEMP:  85;

HARBOR SPRINGS MOSUNNY   78  71  78 W7        30.06F
HOUGHTON LAKE  MOSUNNY   83  67  58 SW6       30.10F THUNDER
6HR MIN TEMP:  68; 6HR MAX TEMP:  84;

MANISTEE       CLOUDY    81  72  74 W7        30.08F
OSCODA         MOSUNNY   85  65  50 W13       30.05F
6HR MIN TEMP:  66; 6HR MAX TEMP:  87;

PELLSTON       PTSUNNY   79  68  69 W9        30.06S
6HR MIN TEMP:  70; 6HR MAX TEMP:  81;

ROGERS CITY    PTSUNNY   84  69  61 W9        30.04F
TRAVERSE CITY  CLOUDY    84  70  62 W9        30.05F
6HR MIN TEMP:  70; 6HR MAX TEMP:  84; 6HR PCP: TRACE;

$$
MIZ007>008-015-301900-
EASTERN UPPER MICHIGAN

CITY           SKY/WX    TMP DP  RH WIND       PRES   REMARKS
KINROSS        PTSUNNY   79  69  71 W10       30.04F
6HR MIN TEMP:  68; 6HR MAX TEMP:  79;

MACKINAC ISLAN MOSUNNY   75  73  94 SW9G16    30.05F
6HR MIN TEMP:  71; 6HR MAX TEMP:  76;

NEWBERRY       CLOUDY    78  68  72 W9        30.06S
6HR MIN TEMP:  68; 6HR MAX TEMP:  78;

S. S. MARIE    CLOUDY    77  67  71 W10       30.03F
6HR MIN TEMP:  66; 6HR MAX TEMP:  77;

MUNISING         N/A     71  66  84 N9        30.08F
6HR MIN TEMP:  68; 6HR MAX TEMP:  74;

$$
MIZ004>006-011>014-085-301900-
CENTRAL UPPER MICHIGAN

CITY           SKY/WX    TMP DP  RH WIND       PRES   REMARKS
MANISTIQUE     PTSUNNY   78  69  73 SW7       30.06S
6HR MIN TEMP:  69; 6HR MAX TEMP:  81;

ESCANABA       CLOUDY    78  70  76 SE10      30.05F
6HR MIN TEMP:  66; 6HR MAX TEMP:  81;

MENOMINEE      MOSUNNY  N/A N/A N/A SW6       30.07F
SAWYER-GWINN   CLOUDY    72  64  78 E9        30.10F
$$
MIZ001>003-009>011-084-301900-
WESTERN UPPER MICHIGAN

CITY           SKY/WX    TMP DP  RH WIND       PRES   REMARKS
IRON MOUNTAIN  PTSUNNY   76  64  66 NW9       30.10F
6HR MIN TEMP:  66; 6HR MAX TEMP:  77;

HOUGHTON       SUNNY     72  58  61 W10       30.12S
6HR MIN TEMP:  67; 6HR MAX TEMP:  72;

COPPER HARBOR    N/A     69  60  73 N13       30.10S
6HR MIN TEMP:  67; 6HR MAX TEMP:  70;

IRONWOOD       SUNNY     70  58  65 W6        30.17S
6HR MIN TEMP:  64; 6HR MAX TEMP:  70;

$$

ABBREVIATIONS USED IN REMARKS
   TC - TEMPERATURE IN CELSIUS
  WCI - WIND CHILL INDEX
   HX - HEAT INDEX
  VSB - VISIBILITY





USA.gov is the U.S. government's official web portal to all federal, state and local government web resources and services.